TimeCDT,TemperatureF,Dew PointF,Humidity,Sea Level PressureIn,VisibilityMPH,Wind Direction,Wind SpeedMPH,Gust SpeedMPH,PrecipitationIn,Events,Conditions,WindDirDegrees,DateUTC
12:53 AM,43.0,32.0,65,30.26,10.0,Calm,Calm,-,N/A,,Overcast,0,2012-10-07 05:53:00
1:53 AM,42.1,33.1,70,30.26,10.0,Calm,Calm,-,N/A,,Overcast,0,2012-10-07 06:53:00
2:53 AM,42.1,33.1,70,30.27,10.0,WNW,3.5,-,N/A,,Overcast,300,2012-10-07 07:53:00
3:53 AM,41.0,33.1,73,30.26,10.0,WNW,3.5,-,N/A,,Mostly Cloudy,300,2012-10-07 08:53:00
4:53 AM,39.0,32.0,76,30.27,10.0,NW,3.5,-,N/A,,Clear,320,2012-10-07 09:53:00
5:53 AM,36.0,33.1,89,30.25,10.0,Calm,Calm,-,N/A,,Clear,0,2012-10-07 10:53:00
6:53 AM,33.1,30.0,89,30.26,10.0,North,3.5,-,N/A,,Clear,350,2012-10-07 11:53:00
7:53 AM,33.1,30.0,89,30.28,10.0,Calm,Calm,-,N/A,,Clear,0,2012-10-07 12:53:00
8:10 AM,35.6,32.0,87,30.30,1.5,NW,3.5,-,N/A,,Partly Cloudy,320,2012-10-07 13:10:00
8:12 AM,33.8,32.0,93,30.30,0.8,NNW,3.5,-,N/A,,Mist,330,2012-10-07 13:12:00
8:21 AM,33.8,32.0,93,30.31,0.2,NW,3.5,-,N/A,Fog,Fog,320,2012-10-07 13:21:00
8:44 AM,35.6,33.8,93,30.32,1.0,Calm,Calm,-,N/A,,Mist,0,2012-10-07 13:44:00
8:50 AM,37.4,35.6,93,30.32,4.0,Calm,Calm,-,N/A,,Mostly Cloudy,0,2012-10-07 13:50:00
8:53 AM,37.9,35.1,89,30.30,9.0,NNW,3.5,-,N/A,,Scattered Clouds,330,2012-10-07 13:53:00
9:53 AM,45.0,30.9,58,30.31,10.0,NW,4.6,-,N/A,,Clear,320,2012-10-07 14:53:00
10:53 AM,48.9,27.0,43,30.30,10.0,NW,4.6,-,N/A,,Clear,320,2012-10-07 15:53:00
11:53 AM,50.0,26.1,39,30.27,10.0,WNW,10.4,-,N/A,,Clear,290,2012-10-07 16:53:00
12:53 PM,52.0,24.1,34,30.26,10.0,West,8.1,-,N/A,,Clear,280,2012-10-07 17:53:00
1:53 PM,53.1,23.0,31,30.22,10.0,West,8.1,-,N/A,,Clear,270,2012-10-07 18:53:00
2:53 PM,54.0,23.0,30,30.20,10.0,WSW,5.8,-,N/A,,Clear,250,2012-10-07 19:53:00
3:53 PM,55.9,24.1,29,30.18,10.0,NW,5.8,-,N/A,,Clear,310,2012-10-07 20:53:00
4:53 PM,55.0,23.0,29,30.16,10.0,NW,6.9,-,N/A,,Clear,320,2012-10-07 21:53:00
5:53 PM,55.0,24.1,30,30.15,10.0,Calm,Calm,-,N/A,,Clear,0,2012-10-07 22:53:00
6:53 PM,52.0,25.0,35,30.16,10.0,Calm,Calm,-,N/A,,Clear,0,2012-10-07 23:53:00
7:53 PM,44.1,30.0,58,30.17,10.0,Calm,Calm,-,N/A,,Clear,0,2012-10-08 00:53:00
8:53 PM,42.1,30.0,62,30.19,10.0,Calm,Calm,-,N/A,,Clear,0,2012-10-08 01:53:00
9:53 PM,37.0,30.0,76,30.19,10.0,Calm,Calm,-,N/A,,Clear,0,2012-10-08 02:53:00
10:53 PM,36.0,30.0,79,30.18,10.0,Calm,Calm,-,N/A,,Clear,0,2012-10-08 03:53:00
11:53 PM,34.0,30.0,85,30.17,10.0,Calm,Calm,-,N/A,,Clear,0,2012-10-08 04:53:00